Stündliche Wetter Otor

Heute, 14 April, Mittwoch

Zeit Temperatur Niederschläge Wind Luftdruck Luftfeuchtigkeit
00:00 +9°C° 0 mm 2 m/S 750 mmHg 91%
01:00 +9°C° 0 mm 2 m/S 750 mmHg 91%
02:00 +9°C° 0 mm 2 m/S 750 mmHg 91%
03:00 +9°C° 0 mm 2 m/S 750 mmHg 91%
04:00 +9°C° 0 mm 2 m/S 750 mmHg 91%
05:00 +8°C° 0 mm 2 m/S 750 mmHg 90%
06:00 +9°C° 0 mm 2 m/S 750 mmHg 89%
07:00 +9°C° 0 mm 3 m/S 750 mmHg 87%
08:00 +9°C° 0 mm 3 m/S 750 mmHg 86%
09:00 +10°C° 0 mm 3 m/S 750 mmHg 83%
10:00 +10°C° 0 mm 3 m/S 750 mmHg 79%
11:00 +11°C° 0 mm 4 m/S 750 mmHg 75%
12:00 +11°C° 0 mm 4 m/S 750 mmHg 71%
13:00 +12°C° 0 mm 4 m/S 750 mmHg 67%
14:00 +13°C° 0 mm 4 m/S 749 mmHg 60%
15:00 +13°C° 0 mm 3 m/S 749 mmHg 61%
16:00 +13°C° 0 mm 3 m/S 749 mmHg 61%
17:00 +14°C° 0 mm 2 m/S 749 mmHg 62%
18:00 +13°C° 0 mm 2 m/S 749 mmHg 66%
19:00 +12°C° 0 mm 1 m/S 749 mmHg 71%
20:00 +11°C° 0 mm 1 m/S 749 mmHg 75%
21:00 +11°C° 0 mm 1 m/S 749 mmHg 77%
22:00 +11°C° 0 mm 1 m/S 749 mmHg 78%
23:00 +11°C° 0 mm 1 m/S 748 mmHg 80%

Morgen, 15 April, Donnerstag

Zeit Temperatur Niederschläge Wind Luftdruck Luftfeuchtigkeit
00:00 +11°C° 0 mm 1 m/S 748 mmHg 82%
01:00 +9°C° 0 mm 2 m/S 748 mmHg 83%
02:00 +9°C° 0 mm 2 m/S 748 mmHg 85%
03:00 +9°C° 0.3 mm 2 m/S 748 mmHg 88%
04:00 +9°C° 0.3 mm 2 m/S 748 mmHg 91%
05:00 +9°C° 0.3 mm 2 m/S 747 mmHg 94%
06:00 +9°C° 2.2 mm 2 m/S 747 mmHg 94%
07:00 +9°C° 2.2 mm 2 m/S 747 mmHg 93%
08:00 +8°C° 2.2 mm 2 m/S 747 mmHg 93%
09:00 +9°C° 0.4 mm 2 m/S 747 mmHg 91%
10:00 +10°C° 0.4 mm 1 m/S 747 mmHg 88%
11:00 +11°C° 0.4 mm 1 m/S 747 mmHg 86%
12:00 +12°C° 0.1 mm 1 m/S 747 mmHg 81%
13:00 +13°C° 0.1 mm 1 m/S 746 mmHg 76%
14:00 +14°C° 0.1 mm 2 m/S 746 mmHg 72%
15:00 +13°C° 0.9 mm 2 m/S 746 mmHg 76%
16:00 +13°C° 0.9 mm 2 m/S 746 mmHg 80%
17:00 +12°C° 0.9 mm 2 m/S 746 mmHg 84%
18:00 +12°C° 0.1 mm 2 m/S 746 mmHg 85%
19:00 +10°C° 0.1 mm 2 m/S 746 mmHg 87%
20:00 +9°C° 0.1 mm 2 m/S 746 mmHg 89%
21:00 +8°C° 0 mm 2 m/S 746 mmHg 89%
22:00 +9°C° 0 mm 1 m/S 746 mmHg 89%
23:00 +8°C° 0 mm 1 m/S 746 mmHg 90%

übermorgen, 16 April, Freitag

Zeit Temperatur Niederschläge Wind Luftdruck Luftfeuchtigkeit
00:00 +8°C° 0 mm 1 m/S 746 mmHg 90%
01:00 +7°C° 0 mm 2 m/S 746 mmHg 91%
02:00 +7°C° 0 mm 2 m/S 746 mmHg 92%
03:00 +8°C° 0.1 mm 2 m/S 746 mmHg 92%
04:00 +8°C° 0.1 mm 3 m/S 746 mmHg 92%
05:00 +8°C° 0.1 mm 3 m/S 746 mmHg 92%
06:00 +8°C° 0 mm 4 m/S 746 mmHg 87%
07:00 +8°C° 0 mm 4 m/S 747 mmHg 82%
08:00 +9°C° 0 mm 5 m/S 747 mmHg 77%
09:00 +10°C° 0.1 mm 5 m/S 747 mmHg 72%
10:00 +10°C° 0.1 mm 6 m/S 747 mmHg 67%
11:00 +11°C° 0.1 mm 6 m/S 748 mmHg 62%
12:00 +11°C° 0 mm 6 m/S 748 mmHg 61%
13:00 +12°C° 0 mm 5 m/S 748 mmHg 60%
14:00 +13°C° 0 mm 5 m/S 748 mmHg 59%
15:00 +12°C° 0.1 mm 5 m/S 748 mmHg 61%
16:00 +12°C° 0.1 mm 4 m/S 748 mmHg 63%
17:00 +12°C° 0.1 mm 4 m/S 748 mmHg 64%
18:00 +11°C° 0 mm 3 m/S 749 mmHg 70%
19:00 +10°C° 0 mm 3 m/S 749 mmHg 76%
20:00 +8°C° 0 mm 2 m/S 749 mmHg 83%
21:00 +8°C° 0 mm 2 m/S 750 mmHg 84%
22:00 +8°C° 0 mm 1 m/S 750 mmHg 86%
23:00 +8°C° 0 mm 1 m/S 750 mmHg 88%

17 April, Samstag

Zeit Temperatur Niederschläge Wind Luftdruck Luftfeuchtigkeit
00:00 +8°C° 0 mm 1 m/S 750 mmHg 88%
01:00 +7°C° 0 mm 1 m/S 750 mmHg 88%
02:00 +6°C° 0 mm 2 m/S 751 mmHg 88%
03:00 +6°C° 0 mm 2 m/S 751 mmHg 88%
04:00 +6°C° 0 mm 2 m/S 751 mmHg 88%
05:00 +6°C° 0 mm 2 m/S 751 mmHg 87%
06:00 +7°C° 0 mm 2 m/S 752 mmHg 83%
07:00 +8°C° 0 mm 2 m/S 752 mmHg 79%
08:00 +9°C° 0 mm 2 m/S 752 mmHg 75%
09:00 +12°C° 0 mm 2 m/S 752 mmHg 70%
10:00 +13°C° 0 mm 2 m/S 753 mmHg 64%
11:00 +14°C° 0 mm 2 m/S 753 mmHg 58%
12:00 +15°C° 0.1 mm 2 m/S 753 mmHg 56%
13:00 +15°C° 0.1 mm 2 m/S 753 mmHg 53%
14:00 +16°C° 0.1 mm 2 m/S 753 mmHg 50%
15:00 +14°C° 0.2 mm 3 m/S 753 mmHg 57%
16:00 +14°C° 0.2 mm 3 m/S 753 mmHg 64%
17:00 +13°C° 0.2 mm 3 m/S 753 mmHg 70%
18:00 +12°C° 0.1 mm 4 m/S 753 mmHg 76%
19:00 +11°C° 0.1 mm 4 m/S 753 mmHg 82%
20:00 +10°C° 0.1 mm 4 m/S 754 mmHg 87%
21:00 +10°C° 0.1 mm 3 m/S 754 mmHg 88%
22:00 +10°C° 0.1 mm 3 m/S 754 mmHg 89%
23:00 +10°C° 0.1 mm 2 m/S 754 mmHg 89%

18 April, Sonntag

Zeit Temperatur Niederschläge Wind Luftdruck Luftfeuchtigkeit
00:00 +10°C° 0.1 mm 3 m/S 754 mmHg 90%
01:00 +9°C° 0.1 mm 3 m/S 754 mmHg 90%
02:00 +9°C° 0.1 mm 3 m/S 754 mmHg 91%
03:00 +8°C° 0 mm 3 m/S 754 mmHg 92%
04:00 +7°C° 0 mm 4 m/S 754 mmHg 92%
05:00 +6°C° 0 mm 4 m/S 754 mmHg 93%
06:00 +7°C° 0 mm 4 m/S 754 mmHg 88%
07:00 +8°C° 0 mm 5 m/S 755 mmHg 83%
08:00 +9°C° 0 mm 5 m/S 755 mmHg 78%
09:00 +10°C° 0 mm 5 m/S 755 mmHg 73%
10:00 +13°C° 0 mm 5 m/S 755 mmHg 68%
11:00 +14°C° 0 mm 5 m/S 755 mmHg 63%
12:00 +14°C° 0 mm 5 m/S 755 mmHg 62%
13:00 +15°C° 0 mm 5 m/S 755 mmHg 60%
14:00 +15°C° 0 mm 5 m/S 755 mmHg 59%
15:00 +14°C° 0 mm 5 m/S 755 mmHg 62%
16:00 +13°C° 0 mm 5 m/S 756 mmHg 64%
17:00 +13°C° 0 mm 4 m/S 756 mmHg 67%
18:00 +12°C° 0 mm 4 m/S 756 mmHg 66%
19:00 +12°C° 0 mm 4 m/S 756 mmHg 66%
20:00 +12°C° 0 mm 3 m/S 756 mmHg 65%
21:00 +11°C° 0 mm 3 m/S 757 mmHg 66%
22:00 +11°C° 0 mm 3 m/S 757 mmHg 66%
23:00 +11°C° 0 mm 3 m/S 757 mmHg 67%

19 April, Montag

Zeit Temperatur Niederschläge Wind Luftdruck Luftfeuchtigkeit
00:00 +10°C° 0 mm 3 m/S 757 mmHg 68%
01:00 +9°C° 0 mm 3 m/S 757 mmHg 70%
02:00 +9°C° 0 mm 3 m/S 757 mmHg 72%
03:00 +8°C° 0 mm 3 m/S 757 mmHg 72%
04:00 +7°C° 0 mm 4 m/S 757 mmHg 71%
05:00 +6°C° 0 mm 4 m/S 757 mmHg 71%
06:00 +7°C° 0 mm 4 m/S 757 mmHg 68%
07:00 +8°C° 0 mm 4 m/S 757 mmHg 65%
08:00 +9°C° 0 mm 5 m/S 758 mmHg 61%
09:00 +10°C° 0 mm 5 m/S 758 mmHg 56%
10:00 +13°C° 0 mm 5 m/S 758 mmHg 51%
11:00 +14°C° 0 mm 5 m/S 758 mmHg 45%
12:00 +15°C° 0 mm 5 m/S 757 mmHg 43%
13:00 +15°C° 0 mm 5 m/S 757 mmHg 41%
14:00 +15°C° 0 mm 6 m/S 757 mmHg 39%
15:00 +15°C° 0 mm 5 m/S 756 mmHg 42%
16:00 +15°C° 0 mm 5 m/S 756 mmHg 44%
17:00 +14°C° 0 mm 5 m/S 756 mmHg 46%
18:00 +13°C° 0 mm 5 m/S 756 mmHg 52%
19:00 +12°C° 0 mm 5 m/S 756 mmHg 58%
20:00 +9°C° 0 mm 5 m/S 756 mmHg 64%
21:00 +9°C° 0 mm 6 m/S 756 mmHg 65%
22:00 +8°C° 0 mm 6 m/S 756 mmHg 67%
23:00 +8°C° 0 mm 6 m/S 756 mmHg 69%
Mehr zeigen

Wir brauchen deine Erlaubnis

Meteoprog und unser Service Anbieter werden persönliche Daten aufbewahren, so wie Cookies, Geräte Bezeichnung oder ähnliche Technologien von deinem Gerät und Prozess, so wie Persönliche Daten Inhalte und Werbungen, genauso wie social Media und den Verkehr zu analysieren.

  • Aufbewahrung und/oder Zugang zu deiner Geräte Informationen.

    Cookies, Geräte Bezeichnung oder andere Informationen, können aufbewahrt oder Zugang zu deinem Gerät erhalten, für den Grund, der oben angegeben wird.

  • Personalisierte Werbung und Inhalte, Messungen, Einblick in das Publikum und Produkt Entwicklung.

    Werbungen und Inhalte können personalisiert werden, basierend auf ein Profil. Mehr Daten können besser personalisierte Werbungen und Inhalte hinzufügen. Werbung und Inhalte können gezeigt und gemessen werden. Einblicke über das Publikum, welche die Werbung gesehen haben und den Inhalt, können abgeleitet werden. So wie Daten können genutzt werden, um es zu verbessern oder die Benutzer Erfahrung zu verbessern das System und die Software.

Wenn du “Ich stimme zu” klickst, erlaubst du uns, die Cookies zu benutzen die Geräte Bezeichnung, den Web oder ähnliche Technologien zu benutzen. Deine Settings, können in deinem Gerät bei deinem Browser geändert werden.

Für den bestimmten Zweck, berechtigten Interessen beruhen darauf, mehr als auf den Inhalt. Du kannst mehr darüber in unseren Privaten und Cookie Politik lesen.